WZZ877M ENGM-EDDF

Flight info

Callsign WZZ877M
Flight time N/A
Altitude 33000
Route VIPPA DCT RAXLU DCT RIMET/N0449F310 T157 KOKEB/N0402F230 T157 KERAX KERAX5A
Aircraft A321/M-SDE3FGHIRWY/LB1

Departure

Time 2026-05-06 14:26
Airport Oslo-Gardermoen International Airport (ENGM)

Arrival

Time N/A
Airport Frankfurt Main Airport (EDDF)
Time Latitude Longitude Altitude Speed Heading
2026-05-06 13:59 60.19431 11.10472 677 ft 0 kts 194°
2026-05-06 14:18 60.19432 11.10473 707 ft 1 kts 194°
2026-05-06 14:18 60.19456 11.10485 677 ft 4 kts 196°
2026-05-06 14:18 60.19482 11.10501 675 ft 4 kts 195°
2026-05-06 14:18 60.19508 11.10512 676 ft 4 kts 177°
2026-05-06 14:19 60.19525 11.10501 674 ft 2 kts 108°
2026-05-06 14:19 60.19526 11.10498 675 ft 0 kts 107°
2026-05-06 14:21 60.19524 11.10510 674 ft 3 kts 107°
2026-05-06 14:21 60.19512 11.10590 680 ft 9 kts 107°
2026-05-06 14:21 60.19491 11.10744 680 ft 14 kts 105°
2026-05-06 14:22 60.19457 11.10965 680 ft 19 kts 106°
2026-05-06 14:22 60.19427 11.11190 680 ft 10 kts 108°
2026-05-06 14:22 60.19408 11.11334 680 ft 10 kts 104°
2026-05-06 14:22 60.19407 11.11340 680 ft 0 kts 104°
2026-05-06 14:23 60.19407 11.11341 680 ft 0 kts 104°
2026-05-06 14:23 60.19404 11.11378 677 ft 8 kts 96°
2026-05-06 14:23 60.19451 11.11463 680 ft 13 kts 20°
2026-05-06 14:23 60.19562 11.11520 681 ft 20 kts 13°
2026-05-06 14:24 60.19714 11.11614 681 ft 26 kts 29°
2026-05-06 14:24 60.19902 11.11726 682 ft 31 kts 12°
2026-05-06 14:24 60.20053 11.11809 683 ft 15 kts 24°
2026-05-06 14:24 60.20076 11.11893 683 ft 9 kts 100°
2026-05-06 14:25 60.20053 11.12010 682 ft 9 kts 116°
2026-05-06 14:25 60.20029 11.12136 681 ft 11 kts 111°
2026-05-06 14:25 60.19987 11.12167 680 ft 0 kts 194°
2026-05-06 14:26 60.19815 11.12065 681 ft 62 kts 197°
2026-05-06 14:26 60.19184 11.11699 679 ft 125 kts 196°
2026-05-06 14:26 60.18182 11.11130 803 ft 162 kts 197°
2026-05-06 14:26 60.17137 11.10500 1568 ft 157 kts 201°
2026-05-06 14:27 60.16077 11.09885 2261 ft 159 kts 199°
2026-05-06 14:27 60.15002 11.09279 2987 ft 161 kts 200°
2026-05-06 14:27 60.13887 11.08633 3340 ft 177 kts 199°
2026-05-06 14:27 60.12596 11.08121 3546 ft 201 kts 189°
2026-05-06 14:28 60.11127 11.07788 3731 ft 223 kts 188°
2026-05-06 14:28 60.09489 11.07427 3901 ft 249 kts 188°
2026-05-06 14:28 60.07717 11.07041 4445 ft 261 kts 188°
2026-05-06 14:28 60.05902 11.06600 5203 ft 264 kts 193°
2026-05-06 14:29 60.04151 11.05473 5988 ft 266 kts 201°
2026-05-06 14:29 60.02404 11.04215 6777 ft 268 kts 202°
2026-05-06 14:29 60.00644 11.02933 7564 ft 270 kts 201°
2026-05-06 14:29 59.98873 11.01636 8330 ft 272 kts 202°
2026-05-06 14:30 59.97086 11.00331 9107 ft 275 kts 202°
2026-05-06 14:30 59.95310 10.99029 9877 ft 277 kts 203°
2026-05-06 14:30 59.93477 10.97637 10305 ft 291 kts 204°
2026-05-06 14:30 59.91514 10.96108 10464 ft 314 kts 204°
2026-05-06 14:31 59.89413 10.94456 10584 ft 336 kts 204°
2026-05-06 14:31 59.87180 10.92708 10855 ft 350 kts 204°
2026-05-06 14:31 59.84894 10.90929 11451 ft 355 kts 204°
2026-05-06 14:31 59.82582 10.89141 12134 ft 357 kts 204°
2026-05-06 14:32 59.80255 10.87350 12821 ft 359 kts 205°
2026-05-06 14:32 59.77914 10.85551 13504 ft 362 kts 205°
2026-05-06 14:32 59.75559 10.83742 14149 ft 364 kts 205°
2026-05-06 14:32 59.73193 10.81927 14771 ft 366 kts 205°
2026-05-06 14:33 59.70810 10.80099 15351 ft 368 kts 206°
2026-05-06 14:33 59.68409 10.78261 15975 ft 371 kts 206°
2026-05-06 14:33 59.65992 10.76417 16582 ft 374 kts 206°
2026-05-06 14:33 59.63562 10.74564 17205 ft 376 kts 206°
2026-05-06 14:34 59.61108 10.72694 17810 ft 378 kts 206°
2026-05-06 14:34 59.58645 10.70816 18375 ft 381 kts 206°
2026-05-06 14:34 59.56200 10.68957 18879 ft 383 kts 206°
2026-05-06 14:34 59.53709 10.67068 19388 ft 384 kts 206°
2026-05-06 14:35 59.51208 10.65179 19914 ft 385 kts 206°
2026-05-06 14:35 59.48699 10.63287 20433 ft 387 kts 206°
2026-05-06 14:35 59.46181 10.61391 20933 ft 388 kts 206°
2026-05-06 14:35 59.43651 10.59486 21353 ft 390 kts 206°
2026-05-06 14:36 59.41106 10.57567 21818 ft 392 kts 206°
2026-05-06 14:36 59.38551 10.55644 22283 ft 394 kts 206°
2026-05-06 14:36 59.35984 10.53720 22746 ft 396 kts 206°
2026-05-06 14:36 59.33408 10.51794 23202 ft 397 kts 206°
2026-05-06 14:37 59.30822 10.49863 23636 ft 399 kts 206°
2026-05-06 14:37 59.28220 10.47942 24090 ft 401 kts 204°
2026-05-06 14:37 59.25444 10.46862 24450 ft 414 kts 190°
2026-05-06 14:37 59.22549 10.46646 24813 ft 417 kts 188°
2026-05-06 14:38 59.19639 10.46491 25174 ft 419 kts 188°
2026-05-06 14:38 59.16717 10.46365 25496 ft 420 kts 188°
2026-05-06 14:38 59.13787 10.46251 25837 ft 422 kts 188°
2026-05-06 14:38 59.10853 10.46138 26182 ft 423 kts 188°
2026-05-06 14:39 59.07902 10.46014 26527 ft 424 kts 188°
2026-05-06 14:39 59.04950 10.45876 26851 ft 426 kts 188°
2026-05-06 14:39 59.01986 10.45732 27189 ft 427 kts 188°
2026-05-06 14:39 58.99016 10.45586 27623 ft 425 kts 188°
2026-05-06 14:40 58.96067 10.45443 28114 ft 423 kts 188°
2026-05-06 14:40 58.93130 10.45302 28596 ft 421 kts 188°
2026-05-06 14:40 58.90210 10.45164 29088 ft 419 kts 188°
2026-05-06 14:40 58.87302 10.45027 29473 ft 418 kts 188°
2026-05-06 14:41 58.84401 10.44891 29902 ft 417 kts 188°
2026-05-06 14:41 58.81545 10.44756 30294 ft 415 kts 188°
2026-05-06 14:41 58.78660 10.44622 30652 ft 414 kts 188°
2026-05-06 14:41 58.75784 10.44489 31002 ft 413 kts 188°
2026-05-06 14:42 58.72915 10.44356 31343 ft 412 kts 188°
2026-05-06 14:42 58.70048 10.44220 31684 ft 412 kts 188°
2026-05-06 14:42 58.67188 10.44081 32021 ft 411 kts 188°
2026-05-06 14:42 58.64334 10.43943 32354 ft 410 kts 188°
2026-05-06 14:43 58.61488 10.43803 32683 ft 409 kts 188°
2026-05-06 14:43 58.58638 10.43662 32939 ft 409 kts 188°
2026-05-06 14:43 58.55794 10.43521 33236 ft 409 kts 188°
2026-05-06 14:43 58.52951 10.43386 33541 ft 408 kts 188°
2026-05-06 14:44 58.50110 10.43259 33849 ft 408 kts 188°
2026-05-06 14:44 58.47276 10.43137 34118 ft 407 kts 188°
2026-05-06 14:44 58.44440 10.43010 34330 ft 408 kts 188°
2026-05-06 14:45 58.38746 10.42753 34706 ft 410 kts 188°
2026-05-06 14:45 58.35886 10.42622 34891 ft 411 kts 188°
2026-05-06 14:45 58.33023 10.42489 34964 ft 413 kts 188°
2026-05-06 14:46 58.27258 10.42220 34978 ft 415 kts 188°
2026-05-06 14:46 58.21487 10.41952 34975 ft 415 kts 188°
2026-05-06 14:47 58.15748 10.41682 34978 ft 415 kts 188°
2026-05-06 14:47 58.09972 10.41423 34978 ft 415 kts 187°
2026-05-06 14:48 58.04193 10.41163 34956 ft 416 kts 187°
2026-05-06 14:48 57.98406 10.40900 34969 ft 416 kts 187°
2026-05-06 14:49 57.92614 10.40637 34978 ft 417 kts 187°
2026-05-06 14:49 57.86812 10.40388 34958 ft 417 kts 187°
2026-05-06 14:50 57.81015 10.40126 34966 ft 417 kts 187°
2026-05-06 14:50 57.75215 10.39854 34957 ft 417 kts 187°
2026-05-06 14:51 57.69419 10.39593 34970 ft 416 kts 187°
2026-05-06 14:51 57.63653 10.39342 34976 ft 416 kts 187°
2026-05-06 14:52 57.57862 10.39097 34977 ft 416 kts 187°
2026-05-06 14:52 57.52069 10.38846 34973 ft 416 kts 187°
2026-05-06 14:53 57.46276 10.38585 34948 ft 416 kts 186°
2026-05-06 14:53 57.40478 10.38330 34960 ft 417 kts 186°
2026-05-06 14:54 57.34675 10.38075 34963 ft 417 kts 186°
2026-05-06 14:54 57.28869 10.37820 34963 ft 417 kts 186°
2026-05-06 14:55 57.23064 10.37575 34973 ft 418 kts 186°
2026-05-06 14:55 57.17253 10.37323 34963 ft 418 kts 186°
2026-05-06 14:56 57.11473 10.37066 34969 ft 418 kts 186°
2026-05-06 14:56 57.05656 10.36822 34958 ft 418 kts 186°
2026-05-06 14:57 56.99834 10.36587 34974 ft 418 kts 186°
2026-05-06 14:57 56.94018 10.36334 34944 ft 418 kts 186°
2026-05-06 14:58 56.88202 10.36078 34955 ft 418 kts 186°
2026-05-06 14:58 56.82379 10.35836 34964 ft 418 kts 186°
2026-05-06 14:59 56.76563 10.35583 34968 ft 418 kts 186°
2026-05-06 14:59 56.70753 10.35331 34966 ft 418 kts 186°
2026-05-06 15:00 56.64935 10.35093 34946 ft 418 kts 186°
2026-05-06 15:00 56.59116 10.34862 34952 ft 419 kts 186°
2026-05-06 15:01 56.53285 10.34622 34959 ft 419 kts 186°
2026-05-06 15:01 56.47456 10.34361 34960 ft 419 kts 186°
2026-05-06 15:02 56.41631 10.34108 34961 ft 419 kts 186°
2026-05-06 15:02 56.35797 10.33881 34942 ft 420 kts 185°
2026-05-06 15:03 56.29957 10.33653 34944 ft 420 kts 185°
2026-05-06 15:03 56.24145 10.33404 34945 ft 421 kts 185°
2026-05-06 15:04 56.18284 10.33142 34935 ft 421 kts 185°
2026-05-06 15:04 56.12418 10.32898 34922 ft 422 kts 185°
2026-05-06 15:05 56.06538 10.32679 34925 ft 423 kts 185°
2026-05-06 15:05 56.00649 10.32446 34935 ft 424 kts 185°
2026-05-06 15:06 55.94749 10.32206 34945 ft 424 kts 185°
2026-05-06 15:06 55.88848 10.31959 34950 ft 424 kts 185°
2026-05-06 15:07 55.82942 10.31717 34942 ft 425 kts 184°
2026-05-06 15:07 55.77022 10.31490 34943 ft 425 kts 184°
2026-05-06 15:08 55.71141 10.31264 34948 ft 426 kts 185°
2026-05-06 15:08 55.65218 10.31008 34949 ft 426 kts 185°
2026-05-06 15:09 55.59285 10.30772 34953 ft 426 kts 185°
2026-05-06 15:09 55.53353 10.30535 34952 ft 426 kts 185°
2026-05-06 15:10 55.47422 10.30300 34953 ft 426 kts 185°
2026-05-06 15:10 55.41494 10.30065 34949 ft 426 kts 185°
2026-05-06 15:11 55.36570 10.29873 34947 ft 426 kts 184°
2026-05-06 15:11 55.30635 10.29643 34938 ft 426 kts 184°
2026-05-06 15:12 55.24709 10.29424 34946 ft 426 kts 184°
2026-05-06 15:12 55.17820 10.29143 34942 ft 426 kts 184°
2026-05-06 15:13 55.12854 10.28945 34941 ft 426 kts 184°
2026-05-06 15:13 55.05966 10.28676 34933 ft 426 kts 184°
2026-05-06 15:14 55.00997 10.28483 34938 ft 426 kts 184°
2026-05-06 15:14 54.95104 10.28263 34939 ft 426 kts 184°
2026-05-06 15:15 54.89168 10.28038 34938 ft 427 kts 184°
2026-05-06 15:15 54.83233 10.27798 34937 ft 426 kts 184°
2026-05-06 15:16 54.77295 10.27574 34921 ft 427 kts 183°
2026-05-06 15:16 54.71355 10.27360 34924 ft 427 kts 183°
2026-05-06 15:17 54.65405 10.27218 34925 ft 427 kts 182°
2026-05-06 15:17 54.59454 10.27140 34927 ft 428 kts 182°
2026-05-06 15:18 54.53497 10.27047 34914 ft 428 kts 182°
2026-05-06 15:18 54.47534 10.26945 34914 ft 429 kts 182°
2026-05-06 15:19 54.41563 10.26847 34919 ft 429 kts 182°
2026-05-06 15:19 54.35581 10.26748 34919 ft 429 kts 182°
2026-05-06 15:20 54.29631 10.26641 34914 ft 430 kts 182°
2026-05-06 15:20 54.23638 10.26540 34910 ft 431 kts 182°
2026-05-06 15:21 54.17630 10.26431 34912 ft 432 kts 182°
2026-05-06 15:21 54.11620 10.26325 34909 ft 432 kts 182°
2026-05-06 15:22 54.05598 10.26235 34908 ft 433 kts 182°
2026-05-06 15:22 53.99572 10.26140 34901 ft 433 kts 182°
2026-05-06 15:23 53.93542 10.26026 34904 ft 434 kts 182°
2026-05-06 15:23 53.87547 10.25929 34915 ft 434 kts 182°
2026-05-06 15:24 53.81511 10.25844 34904 ft 434 kts 182°
2026-05-06 15:24 53.75474 10.25744 34899 ft 434 kts 182°
2026-05-06 15:25 53.69431 10.25644 34891 ft 435 kts 182°
2026-05-06 15:25 53.63379 10.25536 34892 ft 435 kts 182°
2026-05-06 15:26 53.57330 10.25435 34898 ft 435 kts 182°
2026-05-06 15:26 53.51276 10.25333 34880 ft 436 kts 182°
2026-05-06 15:27 53.45207 10.25235 34878 ft 436 kts 182°
2026-05-06 15:27 53.39128 10.25139 34870 ft 438 kts 182°
2026-05-06 15:28 53.33035 10.25040 34869 ft 438 kts 182°
2026-05-06 15:28 53.26950 10.24945 34857 ft 437 kts 182°
2026-05-06 15:29 53.20860 10.24847 34857 ft 438 kts 182°
2026-05-06 15:29 53.14763 10.24739 34845 ft 438 kts 182°
2026-05-06 15:30 53.08681 10.24646 34854 ft 436 kts 182°
2026-05-06 15:30 53.02611 10.24551 34860 ft 436 kts 182°
2026-05-06 15:31 52.96542 10.24452 34862 ft 436 kts 182°
2026-05-06 15:31 52.90527 10.24346 34860 ft 435 kts 182°
2026-05-06 15:32 52.81444 10.24204 34859 ft 435 kts 182°
2026-05-06 15:32 52.75389 10.24115 34854 ft 435 kts 183°
2026-05-06 15:33 52.69333 10.24025 34855 ft 435 kts 182°
2026-05-06 15:33 52.63280 10.23931 34857 ft 435 kts 183°
2026-05-06 15:34 52.57229 10.23836 34856 ft 435 kts 182°
2026-05-06 15:34 52.51169 10.23740 34851 ft 435 kts 183°
2026-05-06 15:35 52.45114 10.23639 34849 ft 435 kts 183°
2026-05-06 15:35 52.39051 10.23536 34845 ft 435 kts 183°
2026-05-06 15:36 52.32991 10.23454 34845 ft 435 kts 183°
2026-05-06 15:36 52.26936 10.23364 34834 ft 435 kts 183°
2026-05-06 15:37 52.20895 10.23254 34832 ft 434 kts 183°
2026-05-06 15:37 52.17875 10.23206 35049 ft 433 kts 183°
2026-05-06 15:37 52.14864 10.23166 35321 ft 432 kts 183°
2026-05-06 15:38 52.11854 10.23123 35569 ft 432 kts 183°
2026-05-06 15:38 52.08846 10.23080 35765 ft 433 kts 183°
2026-05-06 15:38 52.02868 10.22993 35802 ft 432 kts 183°
2026-05-06 15:39 51.96855 10.22907 35799 ft 432 kts 183°
2026-05-06 15:39 51.90841 10.22811 35797 ft 432 kts 183°
2026-05-06 15:40 51.84829 10.22721 35796 ft 432 kts 183°
2026-05-06 15:40 51.78825 10.22629 35791 ft 431 kts 183°
2026-05-06 15:41 51.72820 10.22528 35787 ft 431 kts 183°
2026-05-06 15:41 51.66827 10.22436 35807 ft 431 kts 183°
2026-05-06 15:42 51.60949 10.21244 35806 ft 424 kts 200°
2026-05-06 15:42 51.55366 10.18158 35789 ft 425 kts 200°
2026-05-06 15:43 51.49780 10.15035 35783 ft 425 kts 201°
2026-05-06 15:43 51.47022 10.13490 35542 ft 425 kts 201°
2026-05-06 15:43 51.44237 10.11938 35475 ft 424 kts 200°
2026-05-06 15:44 51.38655 10.08842 35444 ft 425 kts 200°
2026-05-06 15:44 51.33057 10.05747 35331 ft 426 kts 200°
2026-05-06 15:45 51.27458 10.02654 35236 ft 426 kts 200°
2026-05-06 15:45 51.21876 9.99421 34609 ft 430 kts 202°
2026-05-06 15:46 51.19078 9.97690 33706 ft 431 kts 203°
2026-05-06 15:46 51.16300 9.95945 32601 ft 427 kts 202°
2026-05-06 15:46 51.13540 9.94208 31538 ft 425 kts 202°
2026-05-06 15:46 51.10789 9.92484 30520 ft 426 kts 202°
2026-05-06 15:47 51.08020 9.90766 29454 ft 427 kts 202°
2026-05-06 15:47 51.05238 9.89057 28472 ft 431 kts 202°
2026-05-06 15:47 51.02424 9.87335 27558 ft 435 kts 202°
2026-05-06 15:47 50.99594 9.85605 26683 ft 438 kts 202°
2026-05-06 15:48 50.96743 9.83867 25837 ft 440 kts 202°
2026-05-06 15:48 50.93898 9.82134 24940 ft 433 kts 202°
2026-05-06 15:48 50.91152 9.80468 24103 ft 421 kts 202°
2026-05-06 15:48 50.88477 9.78850 23333 ft 402 kts 202°
2026-05-06 15:49 50.85914 9.77297 22424 ft 387 kts 202°
2026-05-06 15:49 50.83437 9.75793 21539 ft 375 kts 202°
2026-05-06 15:49 50.81042 9.74339 20776 ft 362 kts 202°
2026-05-06 15:49 50.78733 9.72939 20111 ft 350 kts 202°
2026-05-06 15:50 50.76478 9.71573 19470 ft 344 kts 202°
2026-05-06 15:50 50.74244 9.70222 19071 ft 342 kts 202°
2026-05-06 15:50 50.72031 9.68880 18856 ft 340 kts 202°
2026-05-06 15:50 50.69816 9.67538 18384 ft 343 kts 202°
2026-05-06 15:51 50.67577 9.66184 17755 ft 346 kts 202°
2026-05-06 15:51 50.65322 9.64823 17050 ft 348 kts 202°
2026-05-06 15:51 50.63068 9.63471 16260 ft 346 kts 202°
2026-05-06 15:51 50.60832 9.62130 15496 ft 342 kts 202°
2026-05-06 15:52 50.58615 9.60802 14745 ft 339 kts 202°
2026-05-06 15:52 50.56416 9.59488 14039 ft 336 kts 202°
2026-05-06 15:52 50.54298 9.58221 13930 ft 317 kts 202°
2026-05-06 15:52 50.52235 9.56986 13908 ft 314 kts 202°
2026-05-06 15:53 50.50263 9.55808 13893 ft 297 kts 202°
2026-05-06 15:53 50.48337 9.54655 13882 ft 295 kts 202°
2026-05-06 15:53 50.46418 9.53510 13877 ft 295 kts 202°
2026-05-06 15:53 50.44491 9.52362 13828 ft 296 kts 202°
2026-05-06 15:54 50.42568 9.51220 13467 ft 295 kts 202°
2026-05-06 15:54 50.40674 9.50096 13367 ft 290 kts 202°
2026-05-06 15:54 50.38810 9.48986 13279 ft 282 kts 202°
2026-05-06 15:54 50.37009 9.47916 13165 ft 273 kts 202°
2026-05-06 15:55 50.35256 9.46871 12544 ft 281 kts 202°
2026-05-06 15:55 50.33357 9.45741 11221 ft 300 kts 202°
2026-05-06 15:55 50.31375 9.44564 9970 ft 309 kts 202°
2026-05-06 15:55 50.29359 9.43369 9225 ft 300 kts 202°
2026-05-06 15:56 50.27472 9.42248 8629 ft 287 kts 204°
2026-05-06 15:56 50.25812 9.40669 8037 ft 275 kts 223°
2026-05-06 15:56 50.24627 9.38412 7451 ft 266 kts 240°
2026-05-06 15:56 50.23925 9.35792 6878 ft 258 kts 249°
2026-05-06 15:57 50.23328 9.33180 6321 ft 253 kts 249°
2026-05-06 15:57 50.22737 9.30628 5721 ft 247 kts 249°
2026-05-06 15:57 50.22158 9.28133 5151 ft 242 kts 249°
2026-05-06 15:57 50.21606 9.25755 4985 ft 227 kts 249°
2026-05-06 15:58 50.21072 9.23449 4975 ft 226 kts 249°
2026-05-06 15:58 50.20541 9.21147 4970 ft 225 kts 249°
2026-05-06 15:58 50.20011 9.18858 4994 ft 224 kts 249°
2026-05-06 15:58 50.19480 9.16567 4986 ft 224 kts 249°
2026-05-06 15:59 50.18950 9.14283 4967 ft 223 kts 249°
2026-05-06 15:59 50.18599 9.12777 4973 ft 223 kts 249°
2026-05-06 15:59 50.17889 9.09735 4972 ft 223 kts 249°
2026-05-06 15:59 50.17345 9.07465 4976 ft 223 kts 248°
2026-05-06 16:00 50.16989 9.05960 4974 ft 223 kts 249°
2026-05-06 16:00 50.16458 9.03692 4987 ft 223 kts 249°
2026-05-06 16:00 50.15929 9.01426 4976 ft 222 kts 249°
2026-05-06 16:00 50.15402 8.99171 4989 ft 222 kts 249°
2026-05-06 16:01 50.14873 8.96908 4983 ft 222 kts 249°
2026-05-06 16:01 50.14344 8.94648 4994 ft 222 kts 249°
2026-05-06 16:01 50.13816 8.92398 4988 ft 221 kts 249°
2026-05-06 16:01 50.13288 8.90146 4982 ft 218 kts 249°
2026-05-06 16:02 50.12775 8.87959 5000 ft 213 kts 249°
2026-05-06 16:02 50.12280 8.85853 4954 ft 200 kts 248°
2026-05-06 16:02 50.11812 8.83866 4745 ft 191 kts 248°
2026-05-06 16:02 50.11363 8.81958 4479 ft 183 kts 248°
2026-05-06 16:03 50.10931 8.80127 4229 ft 178 kts 249°
2026-05-06 16:03 50.10504 8.78321 3971 ft 177 kts 249°
2026-05-06 16:03 50.10082 8.76534 3712 ft 175 kts 249°
2026-05-06 16:03 50.09661 8.74750 3474 ft 178 kts 250°
2026-05-06 16:04 50.09234 8.72947 3237 ft 177 kts 250°